Погода в Красногвардейце

Россия / Оренбургская область     52°40′47″N   52°21′40″E
темп.,
°C
ветер,
м/с
пор.,
м/с
влажн.,
%
обл.,
%
осадки,
мм/ч
давл.,
гПа
погр.,
м
21 июня, пн
пн2123:00+22с33830 0.0 102039
02:00+20ссв22912 0.0 102121
05:00+19св22895 0.0 102211
08:00+21в23630 0.0 1023209
11:00+26вюв22450 0.0 1023648
14:00+29ююв11400 0.0 10221211
17:00+30з01390 0.0 10221846
20:00+29юв11510 0.0 102119
22 июня, вт
вт2223:00+23ю22570 0.0 102111
02:00+21ююз225951 0.0 102114
05:00+21з22680 0.0 102216
08:00+24сз12660 0.0 1022164
11:00+28ссз24520 0.0 10221211
14:00+31сз34380 0.0 10222298
17:00+31сз44397 0.0 10212287
20:00+29сз35567 0.0 1020130
23 июня, ср
ср2323:00+24с22700 0.0 102111
02:00+22сз22731 0.0 102111
05:00+21зсз12742 0.0 102111
08:00+24сз23680 0.0 1021192
11:00+29сз34520 0.0 10201040
14:00+32сз45370 0.0 10202696
17:00+32сз453723 0.0 10192608
20:00+27сз586064 0.1 1019375
24 июня, чт
чт2423:00+21ссз377795 0.3 1019123
02:00+21сз2282100 0.0 101824
05:00+20зсз2285100 0.0 101823
08:00+23ссз23755 0.0 1018238
11:00+28ссз34575 0.0 10181035
14:00+31ссз44433 0.0 10172020
17:00+31ссз544499 0.0 10171901
20:00+28с235944 0.0 101679
25 июня, пт
пт2523:00+23сз117775 1.2 101611
02:00+20сз229122 3.3 101740
05:00+20зсз11895 3.3 101611
08:00+23сз23798 0.0 1016200
11:00+28сз33565 0.0 1015747
14:00+31з3446100 0.0 10141590
17:00+31ссз664864 0.0 10131727
20:00+27сз476436 0.1 1013534